Weather History for Minneapolis Flying Cloud, MN

Change the Weather History Date:

Wednesday, September 25, 2013

  Actual Average Record
Temperature  
Mean Temperature 64 °F -  
Max Temperature 75 °F 66 °F 82 °F (1999)
Min Temperature 52 °F 45 °F 34 °F (2000)
Degree Days  
Heating Degree Days 2    
Growing Degree Days 14 (Base 50)    
Moisture  
Dew Point 51 °F    
Average Humidity 67    
Maximum Humidity 97    
Minimum Humidity 40    
Precipitation  
Precipitation 0.00 in - - ()
Sea Level Pressure  
Sea Level Pressure 29.92 in    
Wind  
Wind Speed 4 mph (ESE)    
Max Wind Speed 17 mph    
Max Gust Speed 24 mph    
Visibility 9 miles    
Events      
Averages and records for this station are not official NWS values.
T = Trace of Precipitation, MM = Missing Value Source: NWS Daily Summary

Daily Weather History Graph

Daily Weather History Graph

Search for Another Location

Airport:

Trip Planner

Search our weather history database for the weather conditions in past years. The results will help you decide how hot, cold, wet, or windy it might be!

Date:

Astronomy

Sep. 25, 2013 Rise Set
Actual Time 7:04 AM CDT 7:05 PM CDT
Civil Twilight 6:35 AM CDT 7:34 PM CDT
Nautical Twilight 6:01 AM CDT 8:08 PM CDT
Astronomical Twilight 5:26 AM CDT 8:43 PM CDT
Moon 10:58 PM CDT (9/25) 1:24 PM CDT (9/25)
Length of Visible Light 12h 58m
Length of Day
12h 00m
Waning Gibbous, 64% of the Moon is Illuminated
Sep 25
Waning Gibbous
Sep 26
Last Quarter
Oct 4
New
Oct 11
First Quarter
Oct 18
Full

Hourly Weather History & Observations

Time (CDT) Temp. Dew Point Humidity Pressure Visibility Wind Dir Wind Speed Gust Speed Precip Events Conditions
12:53 AM 55.0 °F 51.1 °F 86% 29.94 in 10.0 mi Calm Calm - N/A   Clear
1:53 AM 55.0 °F 51.1 °F 86% 29.94 in 10.0 mi Calm Calm - N/A   Clear
2:53 AM 55.0 °F 51.1 °F 86% 29.94 in 10.0 mi Calm Calm - N/A   Clear
3:53 AM 54.0 °F 51.1 °F 90% 29.94 in 8.0 mi East 3.5 mph - N/A   Clear
4:53 AM 52.0 °F 51.1 °F 97% 29.95 in 6.0 mi Calm Calm - N/A   Clear
5:53 AM 52.0 °F 50.0 °F 93% 29.95 in 8.0 mi Calm Calm - N/A   Clear
6:53 AM 53.1 °F 50.0 °F 89% 29.96 in 7.0 mi East 3.5 mph - N/A   Clear
7:53 AM 54.0 °F 52.0 °F 93% 29.96 in 5.0 mi East 3.5 mph - N/A   Clear
8:53 AM 57.9 °F 52.0 °F 81% 29.97 in 9.0 mi SE 3.5 mph - N/A   Clear
9:53 AM 62.1 °F 53.1 °F 72% 29.97 in 10.0 mi SE 4.6 mph - N/A   Clear
10:53 AM 66.9 °F 53.1 °F 61% 29.97 in 10.0 mi ESE 5.8 mph - N/A   Clear
11:53 AM 72.0 °F 52.0 °F 49% 29.95 in 10.0 mi SE 10.4 mph - N/A   Clear
12:53 PM 73.9 °F 52.0 °F 46% 29.94 in 10.0 mi SE 13.8 mph 20.7 mph N/A   Clear
1:53 PM 75.0 °F 51.1 °F 43% 29.91 in 10.0 mi SE 17.3 mph 24.2 mph N/A   Clear
2:53 PM 75.9 °F 51.1 °F 42% 29.89 in 10.0 mi ESE 8.1 mph - N/A   Clear
3:53 PM 75.9 °F 50.0 °F 40% 29.88 in 10.0 mi SSE 12.7 mph 17.3 mph N/A   Clear
4:53 PM 75.0 °F 50.0 °F 41% 29.87 in 10.0 mi SSE 11.5 mph - N/A   Clear
5:53 PM 73.0 °F 50.0 °F 44% 29.87 in 10.0 mi SE 10.4 mph - N/A   Clear
6:53 PM 70.0 °F 52.0 °F 53% 29.87 in 10.0 mi ESE 9.2 mph - N/A   Clear
7:53 PM 66.9 °F 51.1 °F 57% 29.86 in 10.0 mi ESE 9.2 mph - N/A   Clear
8:53 PM 64.9 °F 48.9 °F 56% 29.88 in 10.0 mi ESE 9.2 mph - N/A   Clear
9:53 PM 63.0 °F 50.0 °F 63% 29.88 in 10.0 mi ESE 6.9 mph - N/A   Clear
10:53 PM 61.0 °F 51.1 °F 70% 29.89 in 10.0 mi ESE 9.2 mph - N/A   Clear
11:53 PM 60.1 °F 52.0 °F 75% 29.89 in 10.0 mi ESE 10.4 mph - N/A   Clear